EW1587 Weather Reports


time (UTC)temp
C
wind
direction
speed
KPH
gust
KPH
rain 1hr
cm
rain 24hr
cm
rain mn
cm
humidity
%
barometer
mb
20260831135100 22 346 0.0 4.8 0.00 0.00 0.00 100 1008.6
20260831134559 22 301 0.0 8.0 0.00 0.00 0.00 100 1008.6
20260831134057 22 289 1.6 8.0 0.00 0.00 0.00 100 1008.5
20260831133556 22 323 1.6 4.8 0.00 0.00 0.00 100 1008.5
20260831133055 22 278 0.0 1.6 0.00 0.00 0.00 100 1008.4
20260831132554 21 311 0.0 1.6 0.00 0.00 0.00 100 1008.3
20260831132053 21 312 0.0 0.0 0.00 0.00 0.00 100 1008.1
20260831131556 21 292 0.0 1.6 0.00 0.00 0.00 100 1008.1
20260831131052 21 293 0.0 1.6 0.00 0.00 0.00 100 1008.1
20260831130552 21 290 0.0 1.6 0.00 0.00 0.00 100 1008.1
20260831130105 20 303 0.0 1.6 0.00 0.00 0.00 100 1008.0
20260831125552 20 298 0.0 1.6 0.00 0.00 0.00 100 1008.1
20260831125052 20 284 0.0 1.6 0.00 0.00 0.00 100 1008.1
20260831124551 20 240 0.0 1.6 0.00 0.00 0.00 100 1007.9
20260831124049 20 250 0.0 1.6 0.00 0.00 0.00 100 1007.9
20260831123549 20 284 0.0 3.2 0.00 0.00 0.00 100 1007.7
20260831123048 20 289 0.0 3.2 0.00 0.00 0.00 100 1007.6
20260831122547 19 294 0.0 3.2 0.00 0.00 0.00 100 1007.5
20260831122048 19 297 0.0 1.6 0.00 0.00 0.00 100 1007.5
20260831121545 19 243 0.0 1.6 0.00 0.00 0.00 100 1007.3
20260831121045 19 243 0.0 1.6 0.00 0.00 0.00 100 1007.3
20260831120544 19 248 0.0 0.0 0.00 0.00 0.00 100 1007.1
20260831120043 19 288 0.0 1.6 0.00 0.00 0.00 100 1006.9
20260831115542 20 288 0.0 1.6 0.00 0.00 0.00 100 1006.8
20260831115041 19 295 0.0 0.0 0.00 0.00 0.00 100 1006.7
20260831114541 20 295 0.0 0.0 0.00 0.00 0.00 100 1006.6
20260831114040 19 245 0.0 0.0 0.00 0.00 0.00 100 1006.4
20260831113540 20 245 0.0 0.0 0.00 0.00 0.00 100 1006.3
20260831113040 20 244 0.0 0.0 0.00 0.00 0.00 100 1006.4
20260831112539 20 245 0.0 1.6 0.00 0.00 0.00 100 1006.4
20260831112039 20 243 0.0 1.6 0.00 0.00 0.00 100 1006.4
20260831111537 20 293 0.0 0.0 0.00 0.00 0.00 100 1006.4
20260831111037 20 293 0.0 1.6 0.00 0.00 0.00 100 1006.4
20260831110537 20 276 0.0 1.6 0.00 0.00 0.00 100 1006.5
20260831110040 20 280 0.0 3.2 0.00 0.00 0.00 100 1006.5
20260831105539 20 290 0.0 1.6 0.00 0.00 0.00 100 1006.6
20260831105047 20 274 0.0 3.2 0.00 0.00 0.00 100 1006.5
20260831104539 20 260 0.0 3.2 0.00 0.00 0.00 100 1006.4
20260831104035 20 280 0.0 3.2 0.00 0.00 0.00 100 1006.4
20260831103534 20 278 0.0 3.2 0.00 0.00 0.00 100 1006.4
20260831103035 20 273 0.0 1.6 0.00 0.00 0.00 100 1006.4
20260831102533 20 243 0.0 3.2 0.00 0.00 0.00 100 1006.4
20260831102033 20 301 0.0 3.2 0.00 0.00 0.00 100 1006.4
20260831101538 20 246 0.0 3.2 0.00 0.00 0.00 100 1006.2
20260831101034 20 290 0.0 4.8 0.00 0.00 0.00 100 1006.3
20260831100531 20 277 0.0 4.8 0.00 0.00 0.00 100 1006.3
20260831100031 20 278 0.0 4.8 0.00 0.00 0.00 100 1006.1
20260831095631 20 280 0.0 4.8 0.00 0.00 0.00 100 1006.1
20260831095029 20 269 0.0 3.2 0.00 0.00 0.00 100 1006.1
20260831094528 20 264 0.0 4.8 0.00 0.00 0.00 100 1006.0
20260831094029 20 269 0.0 4.8 0.00 0.00 0.00 100 1005.9
20260831093529 20 252 0.0 4.8 0.00 0.00 0.00 100 1005.8
20260831093028 20 250 0.0 4.8 0.00 0.00 0.00 100 1005.9
20260831092528 20 284 0.0 3.2 0.00 0.00 0.00 100 1005.9
20260831092026 20 249 0.0 3.2 0.00 0.00 0.00 100 1005.8
20260831091526 20 243 0.0 3.2 0.00 0.00 0.00 100 1005.8
20260831091025 20 284 0.0 4.8 0.00 0.00 0.00 100 1005.9
20260831090526 21 260 0.0 4.8 0.00 0.00 0.00 100 1005.9
20260831090031 21 306 0.0 4.8 0.00 0.00 0.00 99 1005.8
20260831085525 21 264 0.0 4.8 0.00 0.00 0.00 99 1005.9
20260831085023 21 273 0.0 3.2 0.00 0.00 0.00 99 1005.9
20260831084523 21 277 0.0 3.2 0.00 0.00 0.00 99 1006.1
20260831084022 21 261 0.0 3.2 0.00 0.00 0.00 99 1006.0
20260831083522 21 290 0.0 3.2 0.00 0.00 0.00 99 1005.9
20260831083035 21 273 0.0 4.8 0.00 0.00 0.00 99 1005.8
20260831082524 21 271 0.0 4.8 0.00 0.00 0.00 99 1005.8
20260831082024 21 273 0.0 3.2 0.00 0.00 0.00 99 1005.7
20260831081521 21 298 0.0 3.2 0.00 0.00 0.00 99 1005.6
20260831081024 21 294 1.6 6.4 0.00 0.00 0.00 99 1005.6
20260831080520 21 253 1.6 8.0 0.00 0.00 0.00 99 1005.5
20260831080019 21 272 0.0 8.0 0.00 0.00 0.00 98 1005.4
20260831075519 21 243 1.6 6.4 0.00 0.00 0.00 98 1005.6
20260831075018 21 271 1.6 4.8 0.00 0.00 0.00 98 1005.6
20260831074518 21 240 0.0 6.4 0.00 0.00 0.00 98 1005.7
20260831074018 21 278 1.6 4.8 0.00 0.00 0.00 98 1005.8
20260831073517 21 290 1.6 8.0 0.00 0.00 0.00 98 1005.7
20260831073017 21 257 3.2 11.3 0.00 0.00 0.00 98 1005.7
20260831072517 21 253 4.8 11.3 0.00 0.00 0.00 98 1005.6
20260831072015 21 259 3.2 8.0 0.00 0.00 0.00 98 1005.6
20260831071515 21 247 1.6 6.4 0.00 0.00 0.00 98 1005.7
20260831071014 21 238 3.2 8.0 0.00 0.00 0.00 98 1005.7
20260831070516 21 236 3.2 8.0 0.00 0.00 0.00 97 1005.6
20260831070023 21 234 0.0 8.0 0.00 0.00 0.00 97 1005.6
20260831065513 21 311 3.2 8.0 0.00 0.00 0.00 97 1005.7
20260831065012 21 255 1.6 8.0 0.00 0.00 0.00 97 1005.7
20260831064511 21 236 3.2 8.0 0.00 0.00 0.00 97 1005.9
20260831064010 21 231 0.0 8.0 0.00 0.00 0.00 97 1005.9
20260831063510 21 200 1.6 11.3 0.00 0.00 0.00 96 1005.9
20260831063010 21 292 3.2 11.3 0.00 0.00 0.00 96 1005.7
20260831062512 21 259 1.6 19.3 0.00 0.00 0.00 96 1005.8
20260831062011 22 280 4.8 19.3 0.00 0.00 0.00 96 1005.9
20260831061508 22 189 1.6 12.9 0.00 0.00 0.00 96 1005.9
20260831061008 22 209 3.2 14.5 0.00 0.00 0.00 95 1006.0
20260831060506 22 246 4.8 14.5 0.00 0.00 0.00 95 1006.1
20260831060006 22 253 3.2 12.9 0.00 0.00 0.00 95 1006.1
20260831055506 22 262 4.8 11.3 0.00 0.00 0.00 95 1006.1
20260831055005 22 166 1.6 11.3 0.00 0.00 0.00 95 1006.1
20260831054505 22 166 3.2 11.3 0.00 0.00 0.00 94 1006.1
20260831054004 22 245 4.8 12.9 0.00 0.00 0.00 94 1006.1
20260831053503 22 174 4.8 12.9 0.00 0.00 0.00 94 1006.1
20260831053003 22 252 4.8 11.3 0.00 0.00 0.00 94 1006.2
20260831052502 22 253 3.2 11.3 0.00 0.00 0.00 93 1006.2
20260831052002 22 238 1.6 11.3 0.00 0.00 0.00 93 1006.3
20260831051601 22 218 3.2 11.3 0.00 0.00 0.00 93 1006.5
20260831051159 22 295 3.2 9.7 0.00 0.00 0.00 93 1006.5
20260831050558 22 238 1.6 11.3 0.00 0.00 0.00 92 1006.5
20260831050508 22 255 1.6 11.3 0.00 0.00 0.00 92 1006.5
20260831050122 22 270 1.6 11.3 0.00 0.00 0.00 92 1006.6
20260831045557 22 240 1.6 14.5 0.00 0.00 0.00 92 1006.7
20260831045058 22 243 3.2 14.5 0.00 0.00 0.00 92 1006.8
20260831044604 22 210 4.8 9.7 0.00 0.00 0.00 92 1006.9
20260831044056 22 224 1.6 11.3 0.00 0.00 0.00 91 1007.1
20260831043556 22 176 3.2 11.3 0.00 0.00 0.00 91 1007.2
20260831043056 22 190 3.2 11.3 0.00 0.00 0.00 91 1007.2
20260831042555 23 298 1.6 9.7 0.00 0.00 0.00 91 1007.3
20260831032049 23 182 4.8 16.1 0.00 0.00 0.00 88 1007.0
20260831031549 23 165 4.8 14.5 0.00 0.00 0.00 88 1007.0
20260831025043 24 132 3.2 12.9 0.00 0.00 0.00 87 1006.8
20260831024538 24 214 4.8 14.5 0.00 0.00 0.00 86 1006.7
20260831024030 24 156 4.8 14.5 0.00 0.00 0.00 86 1006.6
20260831023530 24 250 1.6 12.9 0.00 0.00 0.00 86 1006.6
20260831023032 24 127 3.2 12.9 0.00 0.00 0.00 86 1006.6
20260831022529 24 231 1.6 8.0 0.00 0.00 0.00 85 1006.6
20260831022029 25 165 3.2 11.3 0.00 0.00 0.00 86 1006.7
20260831021538 25 180 3.2 11.3 0.00 0.00 0.00 86 1006.6
20260831021029 25 153 1.6 9.7 0.00 0.00 0.00 86 1006.8
20260831020533 25 228 3.2 9.7 0.00 0.00 0.00 86 1006.8
20260831020032 25 152 1.6 9.7 0.00 0.00 0.00 87 1006.7
20260831015532 25 183 1.6 9.7 0.00 0.00 0.00 87 1006.8
20260831015028 25 236 0.0 9.7 0.00 0.00 0.00 87 1006.7
20260831014528 25 143 1.6 9.7 0.00 0.00 0.00 87 1006.7
20260831014030 25 214 0.0 6.4 0.00 0.00 0.00 86 1006.7
20260831013528 25 166 0.0 6.4 0.00 0.00 0.00 86 1006.6
20260831013028 25 109 0.0 6.4 0.00 0.00 0.00 85 1006.6
20260831012528 25 194 0.0 4.8 0.00 0.00 0.00 85 1006.6
20260831012027 25 95 0.0 4.8 0.00 0.00 0.00 85 1006.5
20260831011542 26 90 0.0 4.8 0.00 0.00 0.00 84 1006.4
20260831011027 26 100 0.0 1.6 0.00 0.00 0.00 83 1006.4
20260831010527 26 82 0.0 4.8 0.00 0.00 0.00 83 1006.5
20260831010029 26 85 0.0 6.4 0.00 0.00 0.00 83 1006.4
20260831005527 26 72 0.0 6.4 0.00 0.00 0.00 82 1006.3
20260831005027 26 86 1.6 6.4 0.00 0.00 0.00 82 1006.3
20260831004526 26 103 1.6 8.0 0.00 0.00 0.00 82 1006.3
20260831004026 26 100 1.6 8.0 0.00 0.00 0.00 81 1006.4
20260831001020 27 98 3.2 8.0 0.00 0.00 0.00 78 1006.4
20260831000519 27 83 3.2 11.3 0.00 0.00 0.00 78 1006.4
20260831000019 27 94 3.2 11.3 0.00 0.00 0.00 77 1006.3
20260830235518 27 93 4.8 11.3 0.00 0.00 0.00 77 1006.3
20260830235018 27 99 1.6 9.7 0.00 0.00 0.00 77 1006.3
20260830234518 27 106 3.2 9.7 0.00 0.00 0.00 77 1006.3
20260830234021 27 93 3.2 12.9 0.00 0.00 0.00 76 1006.3
20260830233517 27 114 4.8 16.1 0.00 0.00 0.00 76 1006.2
20260830233022 27 93 4.8 11.3 0.00 0.00 0.00 76 1006.1
20260830232516 28 95 1.6 19.3 0.00 0.00 0.00 75 1006.2
20260830232015 28 250 4.8 19.3 0.00 0.00 0.00 75 1006.2
20260830231516 28 84 3.2 14.5 0.00 0.00 0.00 75 1006.2
20260830231018 28 87 6.4 14.5 0.00 0.00 0.00 74 1006.4
20260830230515 28 96 1.6 11.3 0.00 0.00 0.00 76 1006.5
20260830230015 28 77 0.0 11.3 0.00 0.00 0.00 75 1006.4
20260830225515 28 72 0.0 12.9 0.00 0.00 0.00 76 1006.3
20260830225014 28 96 3.2 12.9 0.00 0.00 0.00 75 1006.2
20260830224518 28 86 3.2 11.3 0.00 0.00 0.00 73 1006.3
20260830224013 28 71 1.6 11.3 0.00 0.00 0.00 74 1006.3
20260830223513 28 124 3.2 9.7 0.00 0.00 0.00 74 1006.3
20260830223012 28 119 1.6 12.9 0.00 0.00 0.00 75 1006.2
20260830222511 28 316 3.2 12.9 0.00 0.00 0.00 75 1006.2
20260830222009 28 103 1.6 9.7 0.00 0.00 0.00 76 1006.3
20260830221509 28 104 1.6 12.9 0.00 0.00 0.00 76 1006.3
20260830221009 28 122 4.8 12.9 0.00 0.00 0.00 76 1006.3
20260830220508 28 132 3.2 11.3 0.00 0.00 0.00 76 1006.3
20260830220007 27 357 1.6 14.5 0.00 0.00 0.00 77 1006.4
20260830215507 27 153 4.8 14.5 0.00 0.00 0.00 76 1006.5
20260830215004 27 75 1.6 14.5 0.00 0.00 0.00 78 1006.6
20260830214504 27 86 3.2 20.9 0.00 0.00 0.00 78 1006.6
20260830214003 27 115 6.4 20.9 0.00 0.00 0.00 77 1006.7
20260830213503 27 47 6.4 11.3 0.00 0.00 0.00 77 1006.7
20260830213005 27 106 1.6 12.9 0.00 0.00 0.00 79 1006.6
20260830212500 27 98 3.2 17.7 0.00 0.00 0.00 79 1006.6
20260830212101 27 89 9.7 17.7 0.00 0.00 0.00 78 1006.7
20260830211603 27 79 1.6 16.1 0.00 0.00 0.00 79 1006.8
20260830211057 27 106 6.4 16.1 0.00 0.00 0.00 79 1006.8
20260830210558 27 93 4.8 14.5 0.00 0.00 0.00 81 1006.9
20260830210056 26 99 6.4 19.3 0.00 0.00 0.00 79 1007.0
20260830205556 27 86 6.4 19.3 0.00 0.00 0.00 80 1007.2
20260830205055 26 122 9.7 22.5 0.00 0.00 0.00 79 1007.1
20260830204555 26 79 9.7 22.5 0.00 0.00 0.00 79 1007.1
20260830204055 27 93 4.8 17.7 0.00 0.00 0.00 79 1007.3
20260830203553 27 117 9.7 19.3 0.00 0.00 0.00 80 1007.2
20260830203052 26 95 6.4 16.1 0.00 0.00 0.00 79 1007.2
20260830202554 26 115 4.8 12.9 0.00 0.00 0.00 81 1007.2
20260830202048 26 136 3.2 19.3 0.00 0.00 0.00 82 1007.0
20260830201549 26 123 8.0 19.3 0.00 0.00 0.00 81 1007.1
20260830201047 26 174 3.2 19.3 0.00 0.00 0.00 84 1007.3
20260830200546 25 105 11.3 19.3 0.00 0.00 0.00 82 1007.2
20260830200046 25 70 9.7 14.5 0.00 0.00 0.00 82 1007.1
20260830195548 25 107 6.4 16.1 0.00 0.00 0.00 82 1007.0
20260830195046 25 103 9.7 19.3 0.00 0.00 0.00 84 1007.0
20260830194557 25 104 12.9 20.9 0.00 0.00 0.00 83 1007.2
20260830194044 25 58 11.3 20.9 0.00 0.00 0.00 83 1007.1
20260830193543 25 99 11.3 20.9 0.00 0.00 0.00 83 1007.2
20260830193054 25 115 11.3 22.5 0.00 0.00 0.00 84 1007.2
20260830192540 25 126 11.3 22.5 0.00 0.00 0.00 85 1007.3
20260830192043 25 94 14.5 22.5 0.00 0.00 0.00 84 1007.4
20260830191539 25 98 9.7 20.9 0.00 0.00 0.00 85 1007.5
20260830191038 25 96 9.7 19.3 0.00 0.00 0.00 84 1007.5
20260830190538 25 103 12.9 20.9 0.00 0.00 0.00 84 1007.7
20260830190037 25 117 9.7 20.9 0.00 0.00 0.00 85 1007.9
20260830185537 25 82 9.7 19.3 0.00 0.00 0.00 85 1007.9
20260830185037 25 94 8.0 16.1 0.00 0.00 0.00 85 1007.9
20260830184536 24 115 6.4 16.1 0.00 0.00 0.00 87 1008.0
20260830184034 24 86 9.7 20.9 0.00 0.00 0.00 86 1008.3
20260830183537 24 155 11.3 20.9 0.00 0.00 0.00 86 1008.4
20260830183034 24 112 6.4 14.5 0.00 0.00 0.00 88 1008.5
20260830182532 23 132 1.6 11.3 0.00 0.00 0.00 89 1008.7
20260830182030 23 90 0.0 11.3 0.00 0.00 0.00 91 1008.8
20260830181529 22 113 3.2 12.9 0.00 0.00 0.00 90 1008.8
20260830181032 22 92 3.2 12.9 0.00 0.00 0.00 90 1008.9
20260830180525 22 75 4.8 14.5 0.00 0.00 0.00 90 1009.0
20260830180025 22 110 6.4 16.1 0.00 0.00 0.00 90 1008.7
20260830175523 22 77 6.4 16.1 0.00 0.00 0.00 90 1008.7
20260830175022 22 132 6.4 19.3 0.00 0.00 0.00 90 1008.6
20260830174522 22 91 6.4 19.3 0.00 0.00 0.00 91 1008.6
20260830174018 22 86 8.0 14.5 0.00 0.00 0.00 91 1008.7
20260830173516 22 121 6.4 12.9 0.00 0.00 0.00 92 1008.6
20260830173015 22 113 1.6 11.3 0.00 0.00 0.00 93 1008.6
20260830172515 21 97 4.8 12.9 0.00 0.00 0.00 93 1008.7
20260830172018 21 89 6.4 12.9 0.00 0.00 0.00 93 1008.7
20260830171513 21 115 6.4 12.9 0.00 0.00 0.00 93 1008.7
20260830171012 21 117 4.8 11.3 0.00 0.00 0.00 93 1008.8
20260830170513 21 84 4.8 9.7 0.00 0.00 0.00 93 1008.9
20260830170015 21 111 6.4 12.9 0.00 0.00 0.00 93 1008.9
20260830165511 21 103 6.4 20.9 0.00 0.00 0.00 93 1008.9
20260830165014 21 110 8.0 20.9 0.00 0.00 0.00 93 1008.8
20260830164510 21 67 9.7 22.5 0.00 0.00 0.00 93 1008.8
20260830164010 21 111 6.4 16.1 0.00 0.00 0.00 93 1008.7
20260830163510 21 81 9.7 16.1 0.00 0.00 0.00 93 1008.7
20260830163009 21 89 9.7 16.1 0.00 0.00 0.00 93 1008.6
20260830162514 21 117 8.0 14.5 0.00 0.00 0.00 94 1008.5
20260830162012 21 65 9.7 14.5 0.00 0.00 0.00 93 1008.4
20260830161507 21 117 8.0 14.5 0.00 0.00 0.00 94 1008.4
20260830161007 21 90 11.3 16.1 0.00 0.00 0.00 94 1008.5
20260830160507 21 84 11.3 16.1 0.00 0.00 0.00 94 1008.5
20260830160006 21 140 9.7 16.1 0.00 0.00 0.00 94 1008.5
20260830155506 21 98 8.0 20.9 0.00 0.00 0.00 94 1008.5
20260830155005 21 69 9.7 20.9 0.00 0.00 0.00 95 1008.2
20260830154504 20 117 9.7 14.5 0.00 0.00 0.00 95 1008.3
20260830154003 20 85 6.4 14.5 0.00 0.00 0.00 96 1008.3
20260830153501 20 98 8.0 14.5 0.00 0.00 0.00 96 1008.5
20260830153001 20 90 8.0 14.5 0.00 0.00 0.00 96 1008.3
20260830152503 20 20 11.3 14.5 0.00 0.00 0.00 97 1008.4
20260830152100 20 101 8.0 17.7 0.00 0.00 0.00 97 1008.4
20260830151610 20 79 6.4 17.7 0.00 0.00 0.00 96 1008.4
20260830151059 20 76 6.4 12.9 0.00 0.00 0.00 97 1008.6
20260830150601 20 86 6.4 12.9 0.00 0.00 0.00 97 1008.6
20260830150104 20 147 6.4 16.1 0.00 0.00 0.00 97 1008.6
20260830145600 20 79 8.0 16.1 0.00 0.00 0.00 97 1008.5
20260830145058 20 58 6.4 12.9 0.00 0.00 0.00 98 1008.3
20260830144556 19 64 8.0 12.9 0.00 0.00 0.00 98 1008.3
20260830144055 19 61 8.0 12.9 0.00 0.00 0.00 98 1008.4
20260830143555 19 82 4.8 12.9 0.00 0.00 0.00 99 1008.7
20260830143058 19 110 6.4 14.5 0.00 0.00 0.00 99 1008.8
20260830142555 19 67 4.8 14.5 0.00 0.00 0.00 99 1008.7
20260830142058 18 81 8.0 12.9 0.00 0.00 0.00 99 1008.5
20260830141555 18 81 8.0 11.3 0.00 0.00 0.00 99 1008.6
20260830141108 18 118 6.4 12.9 0.00 0.00 0.00 99 1008.7
20260830140553 18 101 4.8 9.7 0.00 0.00 0.00 100 1008.9
20260830140053 18 92 0.0 8.0 0.00 0.00 0.00 100 1009.0
20260830140023 18 113 1.6 8.0 0.00 0.00 0.00 100 1009.0
20260830135555 18 132 1.6 8.0 0.00 0.00 0.00 100 1008.9